Location: Carabito
(9.8355°N, 67.9249°W)
Time: 00:08:37
(UTC+00:00)

Cosmos 990 Rocket - Pass Details

Date: 23 May 2024
Orbit: 745 x 765 km, 74.0° (Epoch: 15 June)

Event Time Altitude Azimuth Distance (km) Brightness Sun altitude
Exits shadow 08:44:41 29° 199° (SSW) 1,353 4.9 -20.1°
Maximum altitude 08:47:21 80° 283° (WNW) 770 3.8 -19.5°
Drops below altitude 10° 08:52:30 10° 10° (N) 2,269 6.9 -18.3°
Sets 08:54:51 0° 11° (N) 3,190 7.7 -17.8°
